User: anonymous   Login
Location: Pine Mountain Observatory
(43.7910°N, 120.9377°W)
Time: 08:16:16
(UTC-07:00)
Language:

Cosmos 1867 - Orbit

View from above orbital plane
View from above orbital plane
View from above satellite
View from above satellite

Ground track
Ground track

The orbit data is extracted from the following two-line orbital elements,

1 18187U 87060A   18145.09280531 -.00000086  00000-0  52406-5 0  9990
2 18187  65.0111 351.9446 0017687 282.0608  77.8494 14.31094742612922
Epoch (UTC): 25 May 2018 02:13:38
Eccentricity: 0.0017687
inclination: 65.0111°
perigee height: 775 km
apogee height: 801 km
right ascension of ascending node: 351.9446°
argument of perigee: 282.0608°
revolutions per day: 14.31094742
mean anomaly at epoch: 77.8494°
orbit number at epoch: 61292

The dashed part of the orbit path shows where the satellite is in the earth's shadow,  

DLR